Terminal Aerodrome Forecast
Issued by NWS Boston, MA

Home | Current Version | Previous Version | Text Only | Print | Product List | Glossary On
Versions: 1 2 3 4 5 6 7 8 9 10 11 12 13 14 15 16 17 18 19 20 21 22 23 24 25 26 27 28 29 30 31 32 33 34 35 36 37 38 39 40 41 42 43 44 45 46 47 48 49 50
000
FTUS41 KBOX 282324
TAFPVD
TAF
KPVD 282324Z 2900/2924 31007KT P6SM FEW045
     FM291100 31004KT P6SM FEW110 SCT250
     FM291700 26004KT P6SM BKN100
     FM292000 20004KT P6SM BKN080=

USA.gov is the U.S. government's official web portal to all federal, state and local government web resources and services.